TimeEST,TemperatureF,Dew PointF,Humidity,Sea Level PressureIn,VisibilityMPH,Wind Direction,Wind SpeedMPH,Gust SpeedMPH,PrecipitationIn,Events,Conditions,WindDirDegrees,DateUTC
12:51 AM,30.0,22.1,72,30.49,10.0,Calm,Calm,-,N/A,,Clear,0,2013-02-14 05:51:00
2:51 AM,29.1,21.0,72,30.50,10.0,Calm,Calm,-,N/A,,Scattered Clouds,0,2013-02-14 07:51:00
4:51 AM,27.1,19.0,72,30.54,10.0,WNW,3.5,-,N/A,,Mostly Cloudy,300,2013-02-14 09:51:00
7:51 AM,25.2,18.1,75,30.61,10.0,NW,3.5,-,N/A,,Scattered Clouds,310,2013-02-14 12:51:00
8:51 AM,32.0,20.1,62,30.63,10.0,NW,4.6,-,N/A,,Mostly Cloudy,320,2013-02-14 13:51:00
9:51 AM,36.0,19.0,50,30.65,10.0,NW,5.8,-,N/A,,Overcast,320,2013-02-14 14:51:00
10:51 AM,36.9,18.1,47,30.66,10.0,NNW,6.9,16.1,N/A,,Mostly Cloudy,340,2013-02-14 15:51:00
11:51 AM,38.8,18.1,43,30.65,10.0,West,9.2,-,N/A,,Partly Cloudy,280,2013-02-14 16:51:00
12:51 PM,39.9,19.0,43,30.64,10.0,West,8.1,-,N/A,,Partly Cloudy,270,2013-02-14 17:51:00
1:51 PM,41.0,19.0,41,30.64,10.0,NW,6.9,-,N/A,,Clear,320,2013-02-14 18:51:00
2:51 PM,41.9,18.1,38,30.64,10.0,Variable,3.5,-,N/A,,Clear,0,2013-02-14 19:51:00
3:51 PM,41.9,18.1,38,30.65,10.0,North,3.5,-,N/A,,Clear,350,2013-02-14 20:51:00
4:51 PM,39.9,21.0,47,30.67,10.0,Calm,Calm,-,N/A,,Clear,0,2013-02-14 21:51:00
5:51 PM,32.0,23.0,69,30.70,10.0,Calm,Calm,-,N/A,,Clear,0,2013-02-14 22:51:00
6:51 PM,31.1,21.0,66,30.72,10.0,Calm,Calm,-,N/A,,Clear,0,2013-02-14 23:51:00
7:51 PM,30.0,20.1,67,30.73,10.0,Calm,Calm,-,N/A,,Clear,0,2013-02-15 00:51:00
8:51 PM,27.1,20.1,75,30.73,10.0,Calm,Calm,-,N/A,,Clear,0,2013-02-15 01:51:00
9:51 PM,24.1,19.0,81,30.73,10.0,Calm,Calm,-,N/A,,Clear,0,2013-02-15 02:51:00
10:51 PM,26.1,20.1,78,30.74,10.0,Calm,Calm,-,N/A,,Clear,0,2013-02-15 03:51:00
11:51 PM,26.1,20.1,78,30.74,10.0,Calm,Calm,-,N/A,,Clear,0,2013-02-15 04:51:00